Regional Weather Roundup
Issued by NWS

Home | Current Version | Previous Version | Text Only | Print | Product List | Glossary On
Versions: 1 2 3 4 5 6 7 8 9 10 11 12 13 14 15 16 17 18 19 20 21 22 23 24 25 26 27 28 29 30 31 32 33 34 35 36 37 38 39 40 41 42 43 44 45 46 47 48 49 50
000
ASUS43 KTOP 280359
RWRKS

WEATHER ROUNDUP FOR KANSAS
NATIONAL WEATHER SERVICE GOODLAND KS
1100 PM CDT MON APR 27 2015

NOTE:  "FAIR" INDICATES FEW OR NO CLOUDS BELOW 12,000 FEET WITH NO
SIGNIFICANT WEATHER AND/OR OBSTRUCTIONS TO VISIBILITY.

KSZ001>006-013>018-027>032-041>047-280500-
NORTHWEST KANSAS

CITY           SKY/WX    TMP DP  RH WIND       PRES   REMARKS
GOODLAND       CLEAR     41  34  76 NW5       30.25R
HAYS           PTCLDY    45  30  57 N7        30.18R
HILL CITY      PTCLDY    45  36  70 N8        30.19S
RUSSELL        PTCLDY    50  36  58 NE5       30.16R
$$

KSZ061>065-074>080-084>089-280500-
SOUTHWEST KANSAS

CITY           SKY/WX    TMP DP  RH WIND       PRES   REMARKS
DODGE CITY     MOCLDY    44  34  67 NE9       30.18R
ELKHART          N/A     46  35  65 N6          N/A
GARDEN CITY    MOCLDY    44  32  62 NE9       30.19R
GREAT BEND     PTCLDY    46  36  66 N6        30.16S
LIBERAL        CLOUDY    43  37  81 NW8       30.19R
$$

KSZ066>073-081>083-090>101-280500-
SOUTHEAST KANSAS

CITY           SKY/WX    TMP DP  RH WIND       PRES   REMARKS
CHANUTE        CLOUDY    53  41  63 N6        30.09R
COFFEYVILLE    CLOUDY    55  41  59 NE8       30.06R
HUTCHINSON     CLOUDY    49  39  68 NE3       30.14R
MEDICINE LODGE   N/A     50  42  74 CALM      30.12R
NEWTON         CLOUDY    48  37  66 NE8       30.14S
PARSONS        CLOUDY    55  41  59 N5        30.09R
WICHITA INTL   CLOUDY    57  36  45 NE12      30.11R
WICHITA JABRA  CLOUDY    54  37  52 NE7       30.11R
WINFIELD       CLOUDY    54  40  59 NE6       30.09S
$$

KSZ007>012-019>026-033>040-048>060-102>105-280500-
NORTHEAST KANSAS

CITY           SKY/WX    TMP DP  RH WIND       PRES   REMARKS
CONCORDIA      PTCLDY    49  37  63 N6        30.16R
EMPORIA        CLOUDY    51  37  58 CALM      30.12R
LAWRENCE       PTCLDY    44  39  82 NW9       30.12R
MANHATTAN      CLEAR     44  39  82 CALM      30.13R
OLATHE IND     PTCLDY    49  37  63 N5        30.12R
OLATHE EXE     PTCLDY    57  36  45 N5        30.11R
SALINA         PTCLDY    51  37  58 N3        30.15R
TOPEKA BILLARD PTCLDY    49  40  71 CALM      30.13R
TOPEKA FORBES  PTCLDY    48  39  71 N5        30.12R
$$



USA.gov is the U.S. government's official web portal to all federal, state and local government web resources and services.